Regional Weather Roundup
Issued by NWS

Home | Current Version | Previous Version | Text Only | Print | Product List | Glossary Off
Versions: 1 2 3 4 5 6 7 8 9 10 11 12 13 14 15 16 17 18 19 20 21 22 23 24 25 26 27 28 29 30 31 32 33 34 35 36 37 38 39 40 41 42 43 44 45 46 47 48 49 50

000
ASUS43 KBIS 210520
RWRND

NORTH DAKOTA REGIONAL WEATHER ROUNDUP
NATIONAL WEATHER SERVICE BISMARCK ND
1200 AM CDT MON APR 21 2014

NOTE: "FAIR" INDICATES FEW OR NO CLOUDS BELOW 12,000 FEET WITH NO
SIGNIFICANT WEATHER AND/OR OBSTRUCTIONS TO VISIBILITY.


NDZ001>003-009>011-017-210600-
NORTHWEST NORTH DAKOTA

CITY           SKY/WX    TMP DP  RH WIND       PRES   REMARKS
WILLISTON      CLEAR     45  29  53 NW9       30.05R
MINOT          CLEAR     49  31  49 W12       29.95S
MINOT AFB      CLEAR     46  33  60 W12       29.95R
$$

NDZ018>021-031>035-040>046-210600-
SOUTHWEST NORTH DAKOTA

CITY           SKY/WX    TMP DP  RH WIND       PRES   REMARKS
BISMARCK       CLEAR     47  28  47 W7        30.02R
DICKINSON      CLEAR     40  25  55 W7        30.06R
GARRISON         N/A     47  30  51 W9        30.00R
HETTINGER ARPT CLEAR     38  23  55 CALM      30.10R
$$

NDZ004>008-012>016-024-026-027-054-210600-
NORTHEAST NORTH DAKOTA

CITY           SKY/WX    TMP DP  RH WIND       PRES   REMARKS
GRAND FORKS    LGT RAIN  57  38  48 NW13G20   29.89R
GRND FRKS AFB  CLOUDY    56  38  49 W8        29.90R
DEVILS LAKE    PTCLDY    45  34  65 W13       29.93R
$$

NDZ022-023-025-028>030-036>039-047>053-210600-
SOUTHEAST NORTH DAKOTA

CITY           SKY/WX    TMP DP  RH WIND       PRES   REMARKS
FARGO          PTCLDY    57  33  40 NW8       29.91R
JAMESTOWN      MOCLDY    53  32  44 NW9       29.95R
$$




USA.gov is the U.S. government's official web portal to all federal, state and local government web resources and services.